Location: Newark
(43.5831°N, 21.3381°E)
Time: 01:30:43
(UTC+00:00)

Envisat - Pass Details

Date: 18 December 2019
Orbit: 764 x 766 km, 98.1° (Epoch: 23 January)

Event Time Altitude Azimuth Distance (km) Brightness Sun altitude
Rises 17:38:18 0° 205° (SSW) 3,220 6.6 -27.7°
Reaches altitude 10° 17:41:11 10° 222° (SW) 2,299 6.0 -28.3°
Maximum altitude 17:44:52 20° 268° (W) 1,718 5.5 -28.9°
Drops below altitude 10° 17:48:33 10° 315° (NW) 2,311 5.9 -29.6°
Sets 17:51:29 0° 332° (NNW) 3,243 6.5 -30.1°
